| time (UTC) | temp F | wind direction | speed MPH | gust MPH | rain 1hr in | rain 24hr in | rain mn in | humidity % | barometer mb |
| 20260509213404 | 82 | 235 | 1.0 | 2.0 | 0.00 | 0.00 | 0.00 | 35 | 1008.5 |
| 20260509212904 | 82 | 239 | 0.0 | 1.0 | 0.00 | 0.00 | 0.00 | 35 | 1008.4 |
| 20260509211905 | 83 | 279 | 1.0 | 2.0 | 0.00 | 0.00 | 0.00 | 37 | 1008.5 |
| 20260509211405 | 83 | 238 | 0.0 | 1.0 | 0.00 | 0.00 | 0.00 | 41 | 1008.6 |
| 20260509205404 | 82 | 138 | 1.0 | 12.0 | 0.00 | 0.00 | 0.00 | 43 | 1008.7 |
| 20260509204904 | 81 | 164 | 0.0 | 2.0 | 0.00 | 0.00 | 0.00 | 43 | 1008.8 |
| 20260509204404 | 81 | 291 | 0.0 | 2.0 | 0.00 | 0.00 | 0.00 | 42 | 1008.9 |
| 20260509203904 | 81 | 182 | 2.0 | 10.0 | 0.00 | 0.00 | 0.00 | 44 | 1008.9 |
| 20260509203405 | 80 | 170 | 0.0 | 1.0 | 0.00 | 0.00 | 0.00 | 47 | 1009.0 |
| 20260509202905 | 80 | 165 | 0.0 | 9.0 | 0.00 | 0.00 | 0.00 | 47 | 1009.1 |
| 20260509202405 | 80 | 232 | 0.0 | 5.0 | 0.00 | 0.00 | 0.00 | 48 | 1009.1 |
| 20260509201904 | 80 | 247 | 1.0 | 7.0 | 0.00 | 0.00 | 0.00 | 48 | 1009.2 |
| 20260509201405 | 80 | 274 | 0.0 | 2.0 | 0.00 | 0.00 | 0.00 | 50 | 1009.3 |
| 20260509195404 | 78 | 264 | 0.0 | 1.0 | 0.00 | 0.00 | 0.00 | 48 | 1009.5 |
| 20260509194904 | 78 | 243 | 1.0 | 12.0 | 0.00 | 0.00 | 0.00 | 49 | 1009.5 |
| 20260509194404 | 78 | 149 | 3.0 | 12.0 | 0.00 | 0.00 | 0.00 | 48 | 1009.6 |
| 20260509193905 | 78 | 149 | 1.0 | 2.0 | 0.00 | 0.00 | 0.00 | 49 | 1009.6 |
| 20260509193405 | 77 | 164 | 0.0 | 1.0 | 0.00 | 0.00 | 0.00 | 52 | 1009.6 |
| 20260509192904 | 77 | 257 | 0.0 | 3.0 | 0.00 | 0.00 | 0.00 | 51 | 1009.6 |
| 20260509192404 | 77 | 128 | 2.0 | 12.0 | 0.00 | 0.00 | 0.00 | 53 | 1009.7 |
| 20260509191405 | 76 | 222 | 0.0 | 2.0 | 0.00 | 0.00 | 0.00 | 56 | 1009.7 |
| 20260509190904 | 76 | 326 | 0.0 | 2.0 | 0.00 | 0.00 | 0.00 | 57 | 1009.7 |
| 20260509190404 | 75 | 143 | 0.0 | 2.0 | 0.00 | 0.00 | 0.00 | 58 | 1009.8 |
| 20260509185905 | 75 | 194 | 0.0 | 2.0 | 0.00 | 0.00 | 0.00 | 57 | 1009.8 |
| 20260509185404 | 74 | 249 | 0.0 | 3.0 | 0.00 | 0.00 | 0.00 | 54 | 1009.9 |
| 20260509184904 | 74 | 319 | 0.0 | 2.0 | 0.00 | 0.00 | 0.00 | 53 | 1009.9 |
| 20260509184404 | 74 | 271 | 0.0 | 2.0 | 0.00 | 0.00 | 0.00 | 54 | 1010.0 |
| 20260509183404 | 74 | 234 | 3.0 | 9.0 | 0.00 | 0.00 | 0.00 | 56 | 1010.0 |
| 20260509182904 | 73 | 263 | 0.0 | 1.0 | 0.00 | 0.00 | 0.00 | 59 | 1009.9 |
| 20260509182405 | 73 | 213 | 0.0 | 1.0 | 0.00 | 0.00 | 0.00 | 63 | 1009.9 |
| 20260509181904 | 72 | 270 | 0.0 | 1.0 | 0.00 | 0.00 | 0.00 | 61 | 1010.0 |
| 20260509181404 | 72 | 258 | 0.0 | 2.0 | 0.00 | 0.00 | 0.00 | 62 | 1010.1 |
| 20260509180904 | 71 | 290 | 0.0 | 1.0 | 0.00 | 0.00 | 0.00 | 63 | 1010.2 |
| 20260509180404 | 71 | 234 | 0.0 | 1.0 | 0.00 | 0.00 | 0.00 | 64 | 1010.1 |
| 20260509175405 | 70 | 272 | 0.0 | 1.0 | 0.00 | 0.00 | 0.00 | 64 | 1010.1 |
| 20260509174904 | 70 | 337 | 0.0 | 8.0 | 0.00 | 0.00 | 0.00 | 63 | 1010.2 |
| 20260509174405 | 70 | 345 | 1.0 | 10.0 | 0.00 | 0.00 | 0.00 | 64 | 1010.2 |
| 20260509173404 | 70 | 237 | 1.0 | 10.0 | 0.00 | 0.00 | 0.00 | 64 | 1010.4 |
| 20260509172904 | 70 | 331 | 3.0 | 8.0 | 0.00 | 0.00 | 0.00 | 63 | 1010.5 |
| 20260509172404 | 71 | 245 | 0.0 | 2.0 | 0.00 | 0.00 | 0.00 | 62 | 1010.5 |
| 20260509171905 | 71 | 332 | 0.0 | 2.0 | 0.00 | 0.00 | 0.00 | 64 | 1010.5 |
| 20260509171404 | 70 | 320 | 0.0 | 1.0 | 0.00 | 0.00 | 0.00 | 65 | 1010.6 |
| 20260509170904 | 70 | 154 | 0.0 | 1.0 | 0.00 | 0.00 | 0.00 | 67 | 1010.6 |
| 20260509170404 | 69 | 346 | 0.0 | 5.0 | 0.00 | 0.00 | 0.00 | 64 | 1010.6 |
| 20260509165904 | 69 | 284 | 5.0 | 9.0 | 0.00 | 0.00 | 0.00 | 64 | 1010.7 |
| 20260509164905 | 69 | 234 | 0.0 | 1.0 | 0.00 | 0.00 | 0.00 | 65 | 1010.7 |
| 20260509164405 | 69 | 358 | 0.0 | 2.0 | 0.00 | 0.00 | 0.00 | 65 | 1010.7 |
| 20260509163904 | 69 | 338 | 0.0 | 3.0 | 0.00 | 0.00 | 0.00 | 64 | 1010.8 |
| 20260509162904 | 68 | 246 | 0.0 | 0.0 | 0.00 | 0.00 | 0.00 | 65 | 1010.6 |
| 20260509162405 | 68 | 308 | 0.0 | 0.0 | 0.00 | 0.00 | 0.00 | 65 | 1010.7 |
| 20260509161904 | 69 | 338 | 0.0 | 0.0 | 0.00 | 0.00 | 0.00 | 65 | 1010.7 |
| 20260509160904 | 68 | 159 | 0.0 | 0.0 | 0.00 | 0.00 | 0.00 | 67 | 1010.7 |
| 20260509160404 | 67 | 240 | 0.0 | 0.0 | 0.00 | 0.00 | 0.00 | 66 | 1010.7 |
| 20260509155904 | 67 | 240 | 0.0 | 0.0 | 0.00 | 0.00 | 0.00 | 66 | 1010.7 |
| 20260509154904 | 66 | 220 | 0.0 | 0.0 | 0.00 | 0.00 | 0.00 | 69 | 1010.6 |
| 20260509154404 | 66 | 231 | 0.0 | 0.0 | 0.00 | 0.00 | 0.00 | 68 | 1010.5 |
| 20260509153904 | 66 | 288 | 0.0 | 0.0 | 0.00 | 0.00 | 0.00 | 68 | 1010.6 |
| 20260509153404 | 66 | 220 | 0.0 | 0.0 | 0.00 | 0.00 | 0.00 | 69 | 1010.5 |
| 20260509152404 | 65 | 329 | 0.0 | 0.0 | 0.00 | 0.00 | 0.00 | 71 | 1010.3 |
| 20260509151904 | 64 | 302 | 0.0 | 0.0 | 0.00 | 0.00 | 0.00 | 70 | 1010.2 |
| 20260509150905 | 64 | 267 | 0.0 | 0.0 | 0.00 | 0.00 | 0.00 | 70 | 1010.2 |
| 20260509150404 | 64 | 337 | 0.0 | 0.0 | 0.00 | 0.00 | 0.00 | 71 | 1010.1 |
| 20260509145904 | 64 | 259 | 0.0 | 0.0 | 0.00 | 0.00 | 0.00 | 72 | 1010.1 |
| 20260509145404 | 64 | 251 | 0.0 | 0.0 | 0.00 | 0.00 | 0.00 | 73 | 1010.1 |
| 20260509144904 | 64 | 249 | 0.0 | 0.0 | 0.00 | 0.00 | 0.00 | 73 | 1010.0 |
| 20260509144404 | 64 | 225 | 0.0 | 0.0 | 0.00 | 0.00 | 0.00 | 73 | 1009.9 |
| 20260509143404 | 63 | 296 | 0.0 | 0.0 | 0.00 | 0.00 | 0.00 | 73 | 1010.0 |
| 20260509142904 | 64 | 248 | 0.0 | 0.0 | 0.00 | 0.00 | 0.00 | 75 | 1010.1 |
| 20260509142404 | 64 | 250 | 0.0 | 0.0 | 0.00 | 0.00 | 0.00 | 76 | 1010.0 |
| 20260509141904 | 63 | 272 | 0.0 | 0.0 | 0.00 | 0.00 | 0.00 | 79 | 1009.9 |
| 20260509141404 | 63 | 189 | 0.0 | 0.0 | 0.00 | 0.00 | 0.00 | 81 | 1009.8 |
| 20260509140904 | 62 | 233 | 0.0 | 0.0 | 0.00 | 0.00 | 0.00 | 82 | 1009.8 |
| 20260509135905 | 60 | 68 | 0.0 | 0.0 | 0.00 | 0.00 | 0.00 | 83 | 1009.7 |
| 20260509132905 | 59 | 186 | 0.0 | 0.0 | 0.00 | 0.00 | 0.00 | 83 | 1009.6 |
| 20260509132404 | 59 | 229 | 0.0 | 0.0 | 0.00 | 0.00 | 0.00 | 83 | 1009.7 |
| 20260509131904 | 58 | 260 | 0.0 | 0.0 | 0.00 | 0.00 | 0.00 | 83 | 1009.7 |
| 20260508225405 | 75 | 196 | 0.0 | 1.0 | 0.00 | 0.00 | 0.00 | 40 | 1009.8 |
| 20260508224904 | 75 | 245 | 0.0 | 1.0 | 0.00 | 0.00 | 0.00 | 40 | 1009.9 |
| 20260508223404 | 75 | 189 | 0.0 | 1.0 | 0.00 | 0.00 | 0.00 | 40 | 1009.7 |
| 20260508222405 | 75 | 194 | 0.0 | 1.0 | 0.00 | 0.00 | 0.00 | 40 | 1009.8 |
| 20260508221905 | 75 | 220 | 1.0 | 7.0 | 0.00 | 0.00 | 0.00 | 39 | 1009.7 |
| 20260508220904 | 76 | 229 | 0.0 | 1.0 | 0.00 | 0.00 | 0.00 | 40 | 1009.7 |
| 20260508215905 | 76 | 194 | 3.0 | 14.0 | 0.00 | 0.00 | 0.00 | 39 | 1009.6 |
| 20260508215404 | 77 | 167 | 5.0 | 13.0 | 0.00 | 0.00 | 0.00 | 40 | 1009.5 |
| 20260508214405 | 77 | 156 | 0.0 | 13.0 | 0.00 | 0.00 | 0.00 | 38 | 1009.5 |
| 20260508213905 | 78 | 228 | 0.0 | 2.0 | 0.00 | 0.00 | 0.00 | 38 | 1009.6 |